Regional Weather Roundup
Issued by NWS

Home | Current Version | Previous Version | Text Only | Print | Product List | Glossary On
Versions: 1 2 3 4 5 6 7 8 9 10 11 12 13 14 15 16 17 18 19 20 21 22 23 24 25 26 27 28 29 30 31 32 33 34 35 36 37 38 39 40 41 42 43 44 45 46 47 48 49 50
000
ASUS44 KFWD 021615
RWRTX
NORTH TEXAS HOURLY WEATHER ROUNDUP
NATIONAL WEATHER SERVICE FORT WORTH TX
1100 AM CDT THU JUL 02 2015

NOTE: "FAIR" INDICATES FEW OR NO CLOUDS BELOW 12,000 FEET WITH NO
SIGNIFICANT WEATHER AND/OR OBSTRUCTIONS TO VISIBILITY.

TXZ118-119-021700-
DALLAS/FORT WORTH METROPLEX

CITY           SKY/WX    TMP DP  RH WIND       PRES   REMARKS
DFW AIRPORT    MOSUNNY   85  64  49 SW21G30   29.99F
DALLAS LOVE    MOSUNNY   85  65  51 SW16G26   30.00F
FTW MEACHAM    SUNNY     84  66  54 SW16G24   29.99F
DAL-EXECUTIVE  SUNNY     82  66  58 SW10G23   30.00F
FTW-ALLIANCE   MOSUNNY   82  65  56 SW20G28   29.99F
FTW-NAS-JRB    MOSUNNY   84  66  54 SW21G28   30.00F
FTW-SPINKS     MOSUNNY   82  64  54 SW18G26     N/A
ARLINGTON      SUNNY     84  65  52 S14G22    30.00F
GRAND PRAIRIE  SUNNY     82  68  61 S15G24    30.02F
ADDISON        SUNNY     84  64  51 SW12G24   30.00
MESQUITE       SUNNY     81  66  61 S13       30.02S
$$

TXZ091>094-102>105-117-120-121-131>134-021700-
NORTH CENTRAL TEXAS

CITY           SKY/WX    TMP DP  RH WIND       PRES   REMARKS
BRIDGEPORT     SUNNY     83  69  62 SW12G17   30.00F
DENTON         SUNNY     84  66  54 SW18      29.98F
MCKINNEY       SUNNY     85  65  51 SW18      29.99F
ROCKWALL       SUNNY     83  67  58 SW15G25   30.00
TERRELL        MOSUNNY   83  70  64 SW16G26   30.01F
$$

TXZ083>090-098>101-113>116-127>130-139>142-154-155-021700-
WESTERN NORTH TEXAS

CITY           SKY/WX    TMP DP  RH WIND       PRES   REMARKS
WICHITA FALLS  SUNNY     85  70  60 SW16      29.94F
VERNON         MOSUNNY   87  64  45 SW16G22   29.94
ABILENE        SUNNY     80  65  59 S16       30.02F
ABILENE-DYESS  SUNNY     80  66  64 S14       30.00F
MINERAL WELLS  MOSUNNY   82  67  60 SW13G24   29.99F
BROWNWOOD      SUNNY     82  63  51 S16       30.04F
$$

TXZ143>147-156>162-174-175-021700-
CENTRAL TEXAS

CITY           SKY/WX    TMP DP  RH WIND       PRES   REMARKS
WACO           PTSUNNY   83  69  62 S17G26    30.02F
WACO-TSTC      MOSUNNY   82  70  65 SW14      30.02F
WACO-MCGREGOR  MOSUNNY   82  70  65 SW14G23   30.03F
CORSICANA      SUNNY     83  70  64 S16       30.03F
MEXIA          MOSUNNY   80  71  73 S12G26    30.03
HEARNE         PTSUNNY   80  74  79 S12G20    30.04
TEMPLE         PTSUNNY   82  68  61 S20       30.02F
KILLEEN        MOSUNNY   82  70  66 S14       30.03F
KILLEEN-SKYLRK PTSUNNY   82  68  61 S16       30.03F
FORT HOOD      MOSUNNY   82  69  65 S15       30.02F
HAMILTON       SUNNY     82  66  57 SW18      30.05S
LAMPASAS       MOSUNNY   81  69  66 S12G17    30.03F
$$

TXZ095>097-106>112-122>126-135>138-148>153-164>167-021700-
EAST TEXAS

CITY           SKY/WX    TMP DP  RH WIND       PRES   REMARKS
PARIS          MOSUNNY   84  61  45 SW24G37   29.98S
TYLER          MOSUNNY   82  69  64 SW14G20   30.03S
LONGVIEW       PTSUNNY   86  70  58 SW16G22   30.02F HX  90
ATHENS         SUNNY     81  70  69 S7        30.02
NACOGDOCHES    PTSUNNY  N/A N/A N/A SW10G18   30.04F
LUFKIN         PTSUNNY   85  74  69 S9        30.04F HX  92
$$

SUPPLEMENTAL OBSERVATIONS (CENTRAL)

CITY           SKY/WX    TMP DP  RH WIND       PRES   REMARKS
LAKE TEXOMA      N/A     82  66  57 W21         N/A
CADDO GRASSLND   N/A     84  64  51 SW10G18     N/A
PAT MAYSE LAKE   N/A     82  66  57 S23         N/A
GREENVILLE       N/A     84  64  51 SW17G25     N/A
CEDAR HILL       N/A     84  66  54 SW9G17      N/A
LAKE LIMESTONE   N/A     82  72  69 SW13        N/A
MCGREGOR         N/A     82  70  65 S12         N/A
TEMPLE           N/A     82  70  65 S16G24      N/A
$$

SUPPLEMENTAL OBSERVATIONS (WEST)

CITY           SKY/WX    TMP DP  RH WIND       PRES   REMARKS
MILLERS CREEK    N/A     84  68  58 SW15        N/A
POSSUM KINGDOM   N/A     84  68  58 SW12G21     N/A
LBJ GRASSLAND    N/A     82  68  61 SW7         N/A
GRANBURY         N/A     84  64  51 SW15G22     N/A
COMANCHE         N/A     81  66  61 SW14        N/A
HAMBY            N/A     81  64  57 SW14G22     N/A
IVIE RESERVOIR   N/A     82  63  51 S12G20      N/A
COLORADO BEND    N/A     82  64  54 W12G21      N/A
$$

SUPPLEMENTAL OBSERVATIONS (EAST)

CITY           SKY/WX    TMP DP  RH WIND       PRES   REMARKS
CLARKSVILLE      N/A     88  64  45 W3G13       N/A
TEXARKANA        N/A     84  68  58 SW8         N/A
LINDEN           N/A     84  66  54 W6G22       N/A
GILMER           N/A     82  68  61 SW14G22     N/A
HENDERSON        N/A     82  70  65 SW15G23     N/A
LUFKIN           N/A     84  73  70 MISG        N/A  HX  91
N SABINE NF      N/A     84  73  70 MISG        N/A  HX  91
S SABINE NF      N/A     84  72  65 CALM        N/A
$$

SUPPLEMENTAL OBSERVATIONS ARE A COLLECTION OF AUTOMATED INSTRUMENTS
THAT ARE MAINTAINED BY A VARIETY OF FEDERAL AND STATE AGENCIES.
CERTAIN ELEMENTS...SUCH AS HUMIDITY VALUES AND SUSTAINED WIND
SPEEDS...MAY BE APPROXIMATED.




USA.gov is the U.S. government's official web portal to all federal, state and local government web resources and services.